Regional Weather Roundup
Issued by NWS

Home | Current Version | Previous Version | Graphics & Text | Print | Product List | Glossary On
Versions: 1 2 3 4 5 6 7 8 9 10 11 12 13 14 15 16 17 18 19 20 21 22 23 24 25 26 27 28 29 30 31 32 33 34 35 36 37 38 39 40 41 42 43 44 45 46 47 48 49 50
000
ASUS43 KMPX 261401
RWRMN
WEATHER ROUNDUP FOR MINNESOTA
NATIONAL WEATHER SERVICE TWIN CITIES/CHANHASSEN MN
900 AM CDT SUN MAR 26 2017


NOTE: "FAIR" INDICATES FEW OR NO CLOUDS BELOW 12,000 FEET WITH NO
SIGNIFICANT WEATHER AND/OR OBSTRUCTIONS TO VISIBILITY. N/A MEANS
CURRENT SKY AND/OR WEATHER CONDITIONS ARE NOT AVAILABLE.

MNZ060>063-068>070-261500-
   Twin Cities Metro

CITY           SKY/WX    TMP DP  RH WIND       PRES   REMARKS
TWIN CITIES    CLOUDY    37  34  89 NE7       29.95S
ST PAUL        CLOUDY    37  36  96 NE3       29.97S
CRYSTAL        CLOUDY    36  33  89 VRB7      29.95S FOG
BLAINE         CLOUDY    37  37 100 N7        29.96R FOG
LAKEVILLE      CLOUDY    34  34 100 NE5       29.94S FOG     WCI  30
EDEN PRAIRIE   CLOUDY    38  35  89 NE5       29.94S FOG
SOUTH ST PAUL  CLOUDY    36  36  97 CALM      29.95S FOG
LAKE ELMO      CLOUDY    36  36 100 N5        29.96S FOG
$$
MNZ001>005-007-008-013>017-022>024-027-028-261500-
   Northwest Minnesota

CITY           SKY/WX    TMP DP  RH WIND       PRES   REMARKS
BEMIDJI        CLOUDY    32  31  96 SE5       29.98S WCI  28
HALLOCK        CLOUDY    34  34 100 S9        29.95S FOG     WCI  26
ROSEAU         CLOUDY    36  30  80 S7        29.96F
WARROAD        CLOUDY    34  30  86 S6        29.97F WCI  29
THIEF RVR FALL CLOUDY    34  31  88 S8        29.97F WCI  27
CROOKSTON      CLOUDY    36  34  93 S7        29.97S FOG
FOSSTON        CLOUDY    34  30  86 SE3       29.98S
DETROIT LAKES  CLOUDY    34  32  93 SE6       29.99R WCI  29
MOORHEAD       CLOUDY    34  34 100 CALM      29.99S
PARK RAPIDS    CLOUDY    34  29  82 CALM      29.97F
MAHNOMEN       CLOUDY    34  31  88 SE3       29.98S
$$
MNZ006-009>011-018-025>026-261500-
   North Central Minnesota

CITY           SKY/WX    TMP DP  RH WIND       PRES   REMARKS
BAUDETTE       CLOUDY    33  30  88 SE6       29.97F WCI  28
FLAG ISLAND    CLOUDY    32  30  93 S14       29.96F WCI  22
INTL FALLS     CLOUDY    33  29  85 SE5       29.99F WCI  29
WASKISH        CLOUDY    34  32  93 SE5       29.98F WCI  30
BIG FORK       CLOUDY    34  30  86 CALM      29.98F
LONGVILLE      CLOUDY    32  32 100 CALM      29.98F
GRAND RAPIDS   CLOUDY    32  30  92 VRB3      30.00F
CRANE LAKE     CLOUDY    32  28  86 CALM      30.03F
ORR            CLOUDY    32  28  86 CALM      29.97F
COOK           CLOUDY    32  28  86 CALM      30.00S
WALKER         CLOUDY    31  31  98 CALM      29.98F
$$
MNZ012-019>021-037-261500-
   Northeast Minnesota

CITY           SKY/WX    TMP DP  RH WIND       PRES   REMARKS
DULUTH         FRZ DRZL  32  31  96 E7        29.97F FOG     WCI  26
ELY            CLOUDY    30  28  93 CALM      30.00S
HIBBING        CLOUDY    31  30  96 NE3       29.99S
EVELETH        CLOUDY    32  30  91 NE3       30.00S
DULUTH HARBOR  MIX PCPN  34  34 100 NE12      30.01F WCI  25
TWO HARBORS    DRIZZLE   36  30  80 NE3       29.98S
SILVER BAY     DRIZZLE   34  32  93 NE5       29.99S WCI  30
GRAND MARAIS     N/A     34  31  88 NE5       30.03S WCI  30
G MARAIS ARPRT MIX PCPN  28  25  86 N3        29.98S
$$
MNZ029>031-032-039>041-046>048-054>057-064-261500-
   West Central Minnesota

CITY           SKY/WX    TMP DP  RH WIND       PRES   REMARKS
FERGUS FALLS   CLOUDY    36  32  87 E3        30.01S
WHEATON        CLOUDY    36  36 100 CALM      29.99S FOG
MORRIS         CLOUDY    36  34  93 E8        29.96S
ALEXANDRIA     CLOUDY    35  31  85 NE5       29.97S WCI  31
ELBOW LAKE     CLOUDY    34  33  95 NE6       29.97F WCI  29
WADENA         CLOUDY    34  30  86 E3        29.97S
GLENWOOD       MOSUNNY   36  30  80 NE7       29.97S
APPLETON       CLOUDY    37  36  93 CALM      29.97S
BENSON         CLOUDY    37  32  81 CALM      29.98S HAZE
MADISON        FOG       39  39 100 NE3       29.96S VSB 1
WILLMAR        CLOUDY    36  36 100 NE7       29.97S FOG
$$
MNZ033>034-036-042>043-049>051-058-059-261500-
   Central Minnesota

CITY           SKY/WX    TMP DP  RH WIND       PRES   REMARKS
ST CLOUD       LGT RAIN  33  33 100 NE6       29.97F FOG     WCI  28
SAUK CENTRE    CLOUDY    33  30  89 NE5       29.97S WCI  29
PAYNESVILLE      N/A     33  33 100 NE5       29.97S FOG     WCI  28
AITKIN         MIX PCPN  34  30  86 NE3       29.97F
PINE RIVER     CLOUDY    34  32  93 NE3       30.01F
BRAINERD       CLOUDY    33  31  92 NE6       29.98S FOG     WCI  28
STAPLES        CLOUDY    34  30  86 CALM      29.98S
LONG PRAIRIE   CLOUDY    32  30  93 N3        29.97S
LITTLE FALLS   MIX PCPN  32  32 100 CALM      29.98S
LITCHFIELD     DRIZZLE   36  34  93 NE7       29.96F
BUFFALO        LGT RAIN  34  33  94 N6        29.97F WCI  29
MAPLE LAKE     DRIZZLE   35  35  99 N6        29.97S WCI  30
HUTCHINSON     DRIZZLE   36  35  99 N6        29.97S
$$
MNZ037-044-045-052-053-261500-
   East Central Minnesota

CITY           SKY/WX    TMP DP  RH WIND       PRES   REMARKS
PRINCETON      LGT RAIN  36  34  93 N3        29.98S
MORA           DRIZZLE   32  32 100 CALM      29.99F
CAMBRIDGE      MIX PCPN  36  34  93 NE3       29.96S
RUSH CITY      RAIN      33  32  96 NE5       29.98S WCI  29
MOOSE LAKE     CLOUDY    32  32 100 NE3       29.97F FOG
CLOQUET        MIX PCPN  32  30  93 E3        29.98S
MCGREGOR       CLOUDY    32  32 100 NE3       29.99S
$$
MNZ071>073-080-081-089-090-097-098-261500-
   Southwest Minnesota

CITY           SKY/WX    TMP DP  RH WIND       PRES   REMARKS
MONTEVIDEO     CLOUDY    36  36 100 E6        29.98S FOG
GRANITE FALLS  CLOUDY    38  37  95 N7        29.97S FOG
CANBY          FOG       37  37  99 CALM      29.97S VSB 1
MARSHALL       MIX PCPN  36  36 100 NE6       29.95S FOG
REDWOOD FALLS  CLOUDY    37  34  89 N6        29.95S FOG
OLIVIA         CLOUDY    34  32  93 NE6       29.95F FOG     WCI  29
PIPESTONE      CLOUDY    36  34  93 E8        29.91S FOG
WINDOM         LGT RAIN  36  36 100 NE8       29.93S
WORTHINGTON    CLOUDY    35  35 100 NE10      29.92S FOG     WCI  27
JACKSON        LGT RAIN  36  36 100 N9        29.92S
TRACY          FOG       37  37 100 NE7       29.94S VSB 1/4
SLAYTON        FOG       34  34 100 NE7       29.92F VSB 3/4 WCI  28
$$
MNZ065>067-074>077-082>085-091>093-261500-
   South Central Minnesota

CITY           SKY/WX    TMP DP  RH WIND       PRES   REMARKS
MANKATO        CLOUDY    36  35  96 NE9       29.93S FOG
NEW ULM        CLOUDY    36  36 100 N5        29.94S FOG
ST JAMES       CLOUDY    36  36 100 CALM      29.95R
FAIRMONT       CLOUDY    36  35  96 NE8       29.92S FOG
GLENCOE        CLOUDY    37  37 100 N3        29.95S FOG
FARIBAULT      CLOUDY    36  36 100 N6        29.93F FOG
OWATONNA       CLOUDY    36  34  93 N5        29.92S FOG
WASECA         CLOUDY    36  36 100 N9        29.93S FOG
ALBERT LEA     CLOUDY    36  36 100 NE6       29.90S FOG
$$
MNZ078>079-086>088-094>096-261500-
   Southeast Minnesota

CITY           SKY/WX    TMP DP  RH WIND       PRES   REMARKS
ROCHESTER      FOG       35  35 100 NE8       29.90S VSB 3/4 WCI  29
RED WING       CLOUDY    37  36  93 CALM      29.93S FOG
STANTON        FOG       36  35  95 NE6       29.92F VSB 1
DODGE CENTER   SNOW      34  34 100 NE6       29.90S VSB<1/4 WCI  29
WINONA         CLOUDY    36  34  93 CALM      29.93S
AUSTIN         CLOUDY    36  34  93 NE6       29.89S FOG
PRESTON        CLOUDY    34  33  96 NE6       29.89S FOG     WCI  29
$$
ABBREVIATIONS USED IN REMARKS
   TC - TEMPERATURES IN CELSIUS
  WCI - WIND CHILL INDEX
   HX - HEAT INDEX
  VSB - VISIBILITY
$$



USA.gov is the U.S. government's official web portal to all federal, state and local government web resources and services.